| time (UTC) | temp F | wind direction | speed knots | gust knots | rain 1hr in | rain 24hr in | rain mn in | humidity % | barometer mb |
| 20260906053058 | 68 | 138 | 0.9 | 7.8 | 0.00 | 0.00 | 0.00 | 62 | 1009.4 |
| 20260906051604 | 67 | 130 | 5.2 | 11.3 | 0.00 | 0.00 | 0.00 | 63 | 1009.5 |
| 20260906050104 | 67 | 121 | 3.5 | 8.7 | 0.00 | 0.00 | 0.00 | 62 | 1009.3 |
| 20260906044549 | 66 | 123 | 6.1 | 10.4 | 0.00 | 0.00 | 0.00 | 62 | 1009.2 |
| 20260906043055 | 66 | 146 | 3.5 | 9.6 | 0.00 | 0.00 | 0.00 | 63 | 1008.9 |
| 20260906041554 | 66 | 111 | 3.5 | 9.6 | 0.00 | 0.00 | 0.00 | 63 | 1008.8 |
| 20260906040050 | 66 | 119 | 2.6 | 9.6 | 0.00 | 0.00 | 0.00 | 62 | 1008.5 |
| 20260906034605 | 66 | 0 | 1.7 | 10.4 | 0.00 | 0.00 | 0.00 | 64 | 1008.0 |
| 20260906033056 | 67 | 67 | 5.2 | 10.4 | 0.00 | 0.00 | 0.00 | 64 | 1008.0 |
| 20260906031555 | 67 | 118 | 3.5 | 11.3 | 0.00 | 0.00 | 0.00 | 64 | 1008.0 |
| 20260906030056 | 67 | 35 | 4.3 | 13.9 | 0.00 | 0.00 | 0.00 | 64 | 1007.9 |
| 20260906024555 | 68 | 88 | 6.1 | 14.8 | 0.00 | 0.00 | 0.00 | 64 | 1007.3 |
| 20260906023107 | 68 | 93 | 4.3 | 16.5 | 0.00 | 0.00 | 0.00 | 63 | 1007.1 |
| 20260906021558 | 68 | 11 | 4.3 | 12.2 | 0.00 | 0.00 | 0.00 | 63 | 1007.0 |
| 20260906020056 | 69 | 89 | 6.1 | 14.8 | 0.00 | 0.00 | 0.00 | 63 | 1006.6 |
| 20260906014559 | 69 | 89 | 4.3 | 14.8 | 0.00 | 0.00 | 0.00 | 64 | 1006.4 |
| 20260906013050 | 70 | 133 | 3.5 | 13.0 | 0.00 | 0.00 | 0.00 | 65 | 1006.4 |
| 20260906011604 | 70 | 80 | 5.2 | 16.5 | 0.00 | 0.00 | 0.00 | 64 | 1006.3 |
| 20260906010058 | 70 | 89 | 5.2 | 11.3 | 0.00 | 0.00 | 0.00 | 64 | 1005.8 |
| 20260906004601 | 71 | 134 | 4.3 | 13.0 | 0.00 | 0.00 | 0.00 | 62 | 1005.5 |
| 20260906003058 | 71 | 138 | 7.0 | 17.4 | 0.00 | 0.00 | 0.00 | 62 | 1005.3 |
| 20260906001555 | 71 | 68 | 4.3 | 14.8 | 0.00 | 0.00 | 0.00 | 62 | 1005.0 |
| 20260906000111 | 72 | 87 | 5.2 | 12.2 | 0.00 | 0.00 | 0.00 | 62 | 1005.1 |
| 20260905234550 | 72 | 130 | 7.0 | 13.0 | 0.00 | 0.00 | 0.00 | 62 | 1005.0 |
| 20260905233106 | 72 | 138 | 3.5 | 9.6 | 0.00 | 0.00 | 0.00 | 62 | 1004.9 |
| 20260905231555 | 73 | 88 | 3.5 | 12.2 | 0.00 | 0.00 | 0.00 | 61 | 1005.2 |
| 20260905230059 | 74 | 85 | 3.5 | 10.4 | 0.00 | 0.00 | 0.00 | 59 | 1004.9 |
| 20260905224559 | 76 | 84 | 2.6 | 7.8 | 0.00 | 0.00 | 0.00 | 55 | 1004.6 |
| 20260905223055 | 76 | 44 | 0.9 | 5.2 | 0.00 | 0.00 | 0.00 | 54 | 1004.5 |
| 20260905221604 | 77 | 344 | 3.5 | 7.0 | 0.00 | 0.00 | 0.00 | 52 | 1004.2 |
| 20260905220058 | 77 | 244 | 0.0 | 1.7 | 0.00 | 0.00 | 0.00 | 54 | 1004.2 |
| 20260905214554 | 76 | 0 | 0.0 | 0.0 | 0.00 | 0.00 | 0.00 | 54 | 1003.9 |
| 20260905213051 | 77 | 0 | 0.0 | 0.0 | 0.00 | 0.00 | 0.00 | 54 | 1003.9 |
| 20260905211608 | 77 | 242 | 0.0 | 1.7 | 0.00 | 0.00 | 0.00 | 53 | 1003.8 |
| 20260905210109 | 77 | 242 | 0.0 | 0.9 | 0.00 | 0.00 | 0.00 | 53 | 1003.9 |
| 20260905204553 | 77 | 0 | 0.0 | 0.0 | 0.00 | 0.00 | 0.00 | 53 | 1003.8 |
| 20260905203058 | 77 | 242 | 0.0 | 1.7 | 0.00 | 0.00 | 0.00 | 52 | 1003.8 |
| 20260905201557 | 78 | 242 | 0.0 | 2.6 | 0.00 | 0.00 | 0.00 | 50 | 1003.8 |
| 20260905194603 | 78 | 0 | 0.0 | 0.0 | 0.00 | 0.00 | 0.00 | 51 | 1003.8 |
| 20260905193100 | 79 | 0 | 0.0 | 1.7 | 0.00 | 0.00 | 0.00 | 50 | 1003.8 |
| 20260905191555 | 79 | 242 | 0.9 | 2.6 | 0.00 | 0.00 | 0.00 | 48 | 1003.7 |
| 20260905190059 | 79 | 0 | 0.0 | 1.7 | 0.00 | 0.00 | 0.00 | 49 | 1003.6 |
| 20260905184607 | 80 | 0 | 0.0 | 1.7 | 0.00 | 0.00 | 0.00 | 48 | 1003.6 |
| 20260905183115 | 80 | 0 | 0.0 | 0.0 | 0.00 | 0.00 | 0.00 | 48 | 1003.7 |
| 20260905181555 | 80 | 0 | 0.0 | 0.0 | 0.00 | 0.00 | 0.00 | 48 | 1003.8 |
| 20260905180050 | 81 | 0 | 0.0 | 0.0 | 0.00 | 0.00 | 0.00 | 47 | 1003.7 |
| 20260905174557 | 82 | 0 | 0.0 | 0.9 | 0.00 | 0.00 | 0.00 | 44 | 1003.6 |
| 20260905173053 | 83 | 0 | 0.0 | 0.0 | 0.00 | 0.00 | 0.00 | 43 | 1003.6 |
| 20260905171553 | 85 | 0 | 0.0 | 0.0 | 0.00 | 0.00 | 0.00 | 42 | 1003.6 |
| 20260905170100 | 85 | 0 | 0.0 | 0.9 | 0.00 | 0.00 | 0.00 | 40 | 1003.5 |
| 20260905164555 | 87 | 0 | 0.0 | 1.7 | 0.00 | 0.00 | 0.00 | 38 | 1003.5 |
| 20260905163057 | 88 | 0 | 0.0 | 2.6 | 0.00 | 0.00 | 0.00 | 36 | 1003.4 |
| 20260905161548 | 88 | 0 | 0.0 | 4.3 | 0.00 | 0.00 | 0.00 | 35 | 1003.5 |
| 20260905160059 | 89 | 243 | 1.7 | 7.0 | 0.00 | 0.00 | 0.00 | 35 | 1003.5 |
| 20260905154553 | 89 | 238 | 1.7 | 7.0 | 0.00 | 0.00 | 0.00 | 34 | 1003.4 |
| 20260905153105 | 90 | 240 | 2.6 | 6.1 | 0.00 | 0.00 | 0.00 | 32 | 1003.5 |
| 20260905151551 | 91 | 254 | 1.7 | 7.0 | 0.00 | 0.00 | 0.00 | 32 | 1003.7 |
| 20260905150057 | 91 | 249 | 1.7 | 8.7 | 0.00 | 0.00 | 0.00 | 32 | 1003.8 |
| 20260905144556 | 91 | 237 | 3.5 | 10.4 | 0.00 | 0.00 | 0.00 | 31 | 1003.8 |
| 20260905143053 | 92 | 250 | 3.5 | 7.8 | 0.00 | 0.00 | 0.00 | 30 | 1003.8 |
| 20260905141609 | 92 | 234 | 0.9 | 9.6 | 0.00 | 0.00 | 0.00 | 31 | 1003.8 |
| 20260905140103 | 92 | 238 | 4.3 | 9.6 | 0.00 | 0.00 | 0.00 | 32 | 1004.0 |
| 20260905134552 | 92 | 248 | 2.6 | 8.7 | 0.00 | 0.00 | 0.00 | 32 | 1004.0 |
| 20260905133057 | 91 | 256 | 3.5 | 9.6 | 0.00 | 0.00 | 0.00 | 33 | 1004.2 |
| 20260905131613 | 92 | 210 | 1.7 | 8.7 | 0.00 | 0.00 | 0.00 | 33 | 1004.4 |
| 20260905130051 | 91 | 294 | 2.6 | 10.4 | 0.00 | 0.00 | 0.00 | 35 | 1004.4 |
| 20260905124548 | 91 | 223 | 3.5 | 9.6 | 0.00 | 0.00 | 0.00 | 34 | 1004.6 |
| 20260905123056 | 91 | 287 | 4.3 | 8.7 | 0.00 | 0.00 | 0.00 | 35 | 1004.9 |
| 20260905121553 | 91 | 297 | 1.7 | 7.8 | 0.00 | 0.00 | 0.00 | 35 | 1005.2 |
| 20260905120058 | 90 | 252 | 3.5 | 12.2 | 0.00 | 0.00 | 0.00 | 37 | 1005.5 |
| 20260905114557 | 90 | 252 | 2.6 | 11.3 | 0.00 | 0.00 | 0.00 | 37 | 1005.6 |
| 20260905113056 | 90 | 246 | 3.5 | 9.6 | 0.00 | 0.00 | 0.00 | 37 | 1005.7 |
| 20260905111550 | 89 | 243 | 4.3 | 9.6 | 0.00 | 0.00 | 0.00 | 38 | 1005.7 |
| 20260905110047 | 89 | 213 | 4.3 | 10.4 | 0.00 | 0.00 | 0.00 | 37 | 1005.8 |
| 20260905104558 | 88 | 290 | 4.3 | 12.2 | 0.00 | 0.00 | 0.00 | 37 | 1005.9 |
| 20260905103056 | 87 | 256 | 5.2 | 11.3 | 0.00 | 0.00 | 0.00 | 38 | 1006.0 |
| 20260905101555 | 87 | 264 | 6.1 | 13.0 | 0.00 | 0.00 | 0.00 | 38 | 1006.1 |
| 20260905100119 | 87 | 297 | 3.5 | 11.3 | 0.00 | 0.00 | 0.00 | 38 | 1006.2 |
| 20260905094555 | 87 | 232 | 3.5 | 8.7 | 0.00 | 0.00 | 0.00 | 38 | 1006.2 |
| 20260905093051 | 86 | 235 | 4.3 | 11.3 | 0.00 | 0.00 | 0.00 | 39 | 1006.3 |
| 20260905091559 | 85 | 290 | 4.3 | 8.7 | 0.00 | 0.00 | 0.00 | 40 | 1006.4 |
| 20260905090122 | 85 | 275 | 6.1 | 13.0 | 0.00 | 0.00 | 0.00 | 42 | 1006.5 |
| 20260905084553 | 84 | 243 | 1.7 | 7.0 | 0.00 | 0.00 | 0.00 | 44 | 1006.6 |
| 20260905083052 | 82 | 0 | 2.6 | 7.8 | 0.00 | 0.00 | 0.00 | 47 | 1006.7 |
| 20260905081602 | 82 | 216 | 0.9 | 3.5 | 0.00 | 0.00 | 0.00 | 50 | 1006.9 |
| 20260905080058 | 80 | 240 | 2.6 | 7.0 | 0.00 | 0.00 | 0.00 | 52 | 1007.0 |
| 20260905074604 | 79 | 240 | 2.6 | 5.2 | 0.00 | 0.00 | 0.00 | 53 | 1006.9 |
| 20260905073105 | 78 | 296 | 0.0 | 2.6 | 0.00 | 0.00 | 0.00 | 55 | 1006.9 |
| 20260905071557 | 76 | 289 | 1.7 | 7.0 | 0.00 | 0.00 | 0.00 | 57 | 1006.9 |
| 20260905070059 | 75 | 281 | 2.6 | 6.1 | 0.00 | 0.00 | 0.00 | 57 | 1006.8 |
| 20260905064553 | 73 | 293 | 4.3 | 8.7 | 0.00 | 0.00 | 0.00 | 60 | 1006.8 |
| 20260905063058 | 73 | 294 | 1.7 | 4.3 | 0.00 | 0.00 | 0.00 | 61 | 1006.6 |
| 20260905061557 | 72 | 240 | 1.7 | 5.2 | 0.00 | 0.00 | 0.00 | 65 | 1006.7 |
| 20260905060056 | 72 | 284 | 0.9 | 3.5 | 0.00 | 0.00 | 0.00 | 65 | 1006.5 |
| 20260905054551 | 70 | 294 | 0.9 | 2.6 | 0.00 | 0.00 | 0.00 | 68 | 1006.4 |